"Pseudo-MPEC" for P10Rx9N

Created 2019 Sep 16 8:07:10 UT using Find_Orb

Click here for an explanation of pseudo-MPECs

 
 Astrometry: 
     P10Rx9N  C2019 09 11p2g+u1cj]=_E15?x]Py@;2]8e8_Astrometry#5At!bYPXDnI'1bF51
     P10Rx9N  C2019 09 11MvwFuZwNl`^^Pw)?rW@redacted;Z7J9[=)$D!jU\A)63CNLIXISF51
     P10Rx9N  C2019 09 11wBdq!Bo7`1.j5RJkvY'r=__F1/$5WM3\o]M0n[^g$O=7V5SMuls`F51
     P10Rx9N KC2019 09 12!xuqTRR'@hQ#oaKP;cqs8h0H$cPSUIm1click!i\/uhk;VBhererL01
     P10Rx9N KC2019 09 12K)DUx-qo'MforjRZyVM01GAl52-F.ZqkX'i?a`sVgv]1(=d8kOJaL01
     P10Rx9N KC2019 09 12vES11;W?O)d-dSLK9F\Zv?E$7/=\^AC4@QFQFWJu:4(Xg.^ZT@nPL01
     P10Rx9N KC2019 09 12_9/P2;!VOAaOL-av(Ud04+reM83WQ@((F:w!JMB1Vn=DFs.0am)3H21
     P10Rx9N KC2019 09 12X0%Eg0K.l..a+d12`wi/o`Sp3t/caBsfgawmIiU1P:O'69JE.0x$H21
     P10Rx9N KC2019 09 12Dn_rXH4BA]Qh`ACKK8!g?7Zi6Cy4!w]explanation:J;c8o_8jvH21
     P10Rx9N KC2019 09 14.84566700 29 30.61 +35 39 22.3    ~9EMM 20.9 GVNEOCPJ95
     P10Rx9N KC2019 09 14.88410100 29 26.22 +35 38 38.5    ~9EMM 21.0 GVNEOCPJ95
     P10Rx9N pC2019 09 15jY6eV;jn2g-lVCi02EaI_edH#3ap#7:\M%mio;_[)GN_DqI01YPwL01
     P10Rx9N pC2019 09 15$T0@J4WdJ_Cq(l3ANBVUgM%QDjeF@$NMDx;V?;97C,Jd4f-juNqYL01
     P10Rx9N pC2019 09 15;DD;eat9hl]tbi92b=Qv]8@Y@kYyaXDC_P6Mo(0CEfg!ycw*9[B3L01

Station data:
(F51) Pan-STARRS 1, Haleakala  (N20.707235 W156.255910)  US/Hawaii.
   Observers N. Primak, A. Schultz, S. Watters, J. Thiel, T. Goggia. Measurer
   PS1 Science Consortium. 1.8-m Ritchey-Chrétien + CCD.
(H21) Astronomical Research Observatory, Westfield  (N39.483057 W87.968270)
   US/Illinois. 0.76-m f/3.0 astrograph + CCD.
(J95) Great Shefford  (N51.474969 W1.447003)  UK.  Observer P. Birtwhistle.
   0.40-m f/6.0 Schmidt-Cassegrain + CCD.
(L01) Višnjan Observatory, Tičan  (N45.290900 E13.749300)  Croatia.
   Observers K. Korlević, E. Pettarin. Measurer E. Pettarin. 1.0-m f/2.9
   reflector + CCD.

Orbital elements:  P10Rx9N
   Perihelion 2019 Jul 16.982137 +/- 0.126 TT = 23:34:16 (JD 2458681.482137)
Epoch 2019 Sep 15.0 TT = JDT 2458741.5   Earth MOID: 0.0373   AutoNEOCP
M  15.75588686 +/- 0.7              (J2000 ecliptic)
n   0.26251995 +/- 0.0133           Peri.  345.71647 +/- 0.08
a   2.41561563 +/- 0.0818           Node   305.18234 +/- 0.22
e   0.6054661 +/- 0.014             Incl.    8.30805 +/- 0.12
P   3.75                   H 22.1   G  0.15   U  9.8  
q 0.95304218 +/- 0.00159    Q 3.87818908 +/- 0.161
From 14 observations 2019 Sept. 11-15; mean residual 0".41
Residuals in arcseconds: 
190911 F51  .14-  .12+    190912 L01  .98+  .39-    190914 J95  .35-  .23-    
190911 F51  .02-  .02+    190912 H21  .52-  .05+    190915 L01  .88+  .32-    
190911 F51  .05+  .10+    190912 H21  .01-  .22-    190915 L01  .78+  .46-    
190912 L01  .06-  .09-    190912 H21  .33-  .01-    190915 L01  .33-  .82-    
190912 L01  .39+  .21-    190914 J95  .12+  .54+    

Ephemerides (geocentric):
Date (UTC) HH   RA              Dec         delta   r     elong  mag " sig PA
---- -- -- --  -------------   -----------  ------ ------ -----  --- ---- ---
2019 09 16 08  00 26 50.708   +35 10 01.95  .29610 1.2470 140.0 21.3 .480  61
2019 09 16 09  00 26 46.378   +35 09 11.76  .29636 1.2474 140.1 21.3 .492  59
2019 09 16 10  00 26 42.053   +35 08 21.56  .29661 1.2477 140.1 21.3 .504  56
2019 09 16 11  00 26 37.734   +35 07 31.33  .29686 1.2480 140.2 21.3 .517  54
2019 09 16 12  00 26 33.420   +35 06 41.08  .29712 1.2483 140.2 21.3 .532  52
2019 09 16 13  00 26 29.113   +35 05 50.81  .29737 1.2487 140.3 21.3 .547  50
2019 09 16 14  00 26 24.811   +35 05 00.51  .29763 1.2490 140.3 21.3 .563  48
2019 09 16 15  00 26 20.514   +35 04 10.19  .29788 1.2493 140.4 21.3 .581  46
2019 09 16 16  00 26 16.224   +35 03 19.84  .29814 1.2497 140.4 21.3 .599  44
2019 09 16 17  00 26 11.939   +35 02 29.47  .29839 1.2500 140.4 21.3 .618  42
2019 09 16 18  00 26 07.660   +35 01 39.08  .29865 1.2503 140.5 21.3 .638  41
2019 09 16 19  00 26 03.387   +35 00 48.67  .29890 1.2506 140.5 21.3 .658  39
2019 09 16 20  00 25 59.120   +34 59 58.23  .29916 1.2510 140.6 21.3 .680  37
2019 09 16 21  00 25 54.858   +34 59 07.77  .29941 1.2513 140.6 21.3 .702  36
2019 09 16 22  00 25 50.602   +34 58 17.29  .29967 1.2516 140.7 21.3 .725  35
2019 09 16 23  00 25 46.351   +34 57 26.78  .29993 1.2519 140.7 21.3 .749  33
2019 09 17 00  00 25 42.107   +34 56 36.26  .30018 1.2523 140.8 21.3 .773  32
2019 09 17 01  00 25 37.868   +34 55 45.71  .30044 1.2526 140.8 21.3 .798  31
2019 09 17 02  00 25 33.635   +34 54 55.13  .30070 1.2529 140.8 21.3 .824  30
2019 09 17 03  00 25 29.407   +34 54 04.54  .30095 1.2532 140.9 21.3 .850  29
2019 09 17 04  00 25 25.185   +34 53 13.92  .30121 1.2536 140.9 21.3 .877  28
2019 09 17 05  00 25 20.969   +34 52 23.28  .30147 1.2539 141.0 21.3 .905  27
2019 09 17 06  00 25 16.759   +34 51 32.62  .30172 1.2542 141.0 21.3 .933  26
2019 09 17 07  00 25 12.554   +34 50 41.94  .30198 1.2545 141.1 21.3 .962  25
2019 09 17 08  00 25 08.356   +34 49 51.23  .30224 1.2549 141.1 21.3 0.99  24
2019 09 17 09  00 25 04.162   +34 49 00.51  .30249 1.2552 141.1 21.3 1.02  23
2019 09 17 10  00 24 59.975   +34 48 09.76  .30275 1.2555 141.2 21.3 1.05  22
2019 09 17 11  00 24 55.793   +34 47 18.99  .30301 1.2559 141.2 21.3 1.08  22
2019 09 17 12  00 24 51.617   +34 46 28.20  .30327 1.2562 141.3 21.3 1.12  21
2019 09 17 13  00 24 47.447   +34 45 37.38  .30353 1.2565 141.3 21.3 1.15  20
2019 09 17 14  00 24 43.282   +34 44 46.55  .30378 1.2568 141.4 21.3 1.18  20
2019 09 17 15  00 24 39.123   +34 43 55.69  .30404 1.2572 141.4 21.3 1.21  19
2019 09 17 16  00 24 34.970   +34 43 04.81  .30430 1.2575 141.4 21.3 1.25  18
2019 09 17 17  00 24 30.822   +34 42 13.91  .30456 1.2578 141.5 21.3 1.28  18
2019 09 17 18  00 24 26.680   +34 41 22.99  .30482 1.2581 141.5 21.4 1.32  17
2019 09 17 19  00 24 22.544   +34 40 32.05  .30508 1.2585 141.6 21.4 1.35  17
2019 09 17 20  00 24 18.413   +34 39 41.09  .30534 1.2588 141.6 21.4 1.39  16
2019 09 17 21  00 24 14.288   +34 38 50.11  .30560 1.2591 141.7 21.4 1.43  16
2019 09 17 22  00 24 10.169   +34 37 59.10  .30586 1.2595 141.7 21.4 1.46  15
2019 09 17 23  00 24 06.056   +34 37 08.08  .30612 1.2598 141.8 21.4 1.50  15
2019 09 18 00  00 24 01.948   +34 36 17.03  .30638 1.2601 141.8 21.4 1.54  14
2019 09 18 01  00 23 57.846   +34 35 25.97  .30663 1.2604 141.8 21.4 1.58  14
2019 09 18 02  00 23 53.749   +34 34 34.88  .30690 1.2608 141.9 21.4 1.62  14
2019 09 18 03  00 23 49.659   +34 33 43.77  .30716 1.2611 141.9 21.4 1.65  13
2019 09 18 04  00 23 45.574   +34 32 52.64  .30742 1.2614 142.0 21.4 1.69  13
2019 09 18 05  00 23 41.494   +34 32 01.50  .30768 1.2618 142.0 21.4 1.73  12
2019 09 18 06  00 23 37.420   +34 31 10.33  .30794 1.2621 142.0 21.4 1.78  12
2019 09 18 07  00 23 33.352   +34 30 19.14  .30820 1.2624 142.1 21.4 1.82  12